Longville, MN

6:26 PM CDT on March 25, 2017 (GMT -0500)
Longville Municipal

Weather History for KXVG - March, 2013

Change the Weather History Date:

Friday, March 1, 2013

  Actual Average (KPWC) Record (KPWC)
Temperature  
Mean Temperature 14 °F -  
Max Temperature 28 °F 27 °F 44 °F (1999)
Min Temperature 0 °F 9 °F -20 °F (2009)
Degree Days  
Heating Degree Days 50    
Moisture  
Dew Point 6 °F    
Average Humidity 64    
Maximum Humidity 92    
Minimum Humidity 34    
Precipitation  
Precipitation 0.00 in - - ()
Sea Level Pressure  
Sea Level Pressure 30.33 in    
Wind  
Wind Speed 1 mph (NE)    
Max Wind Speed 7 mph    
Max Gust Speed -    
Visibility 10 miles    
Events      
Averages and records for this station are not official NWS values.
T = Trace of Precipitation, MM = Missing Value Source: NWS Daily Summary

Daily Weather History Graph

Daily Weather History Graph

Search for Another Location

Airport or City:

Trip Planner

Search our weather history database for the weather conditions in past years. The results will help you decide how hot, cold, wet, or windy it might be!

Date:

Astronomy

Mar. 01, 2013 Rise Set
Actual Time 6:56 AM CST 6:02 PM CST
Civil Twilight 6:25 AM CST 6:33 PM CST
Nautical Twilight 5:50 AM CST 7:08 PM CST
Astronomical Twilight 5:15 AM CST 7:43 PM CST
Moon 10:58 PM CST (3/1) 8:24 AM CST (3/1)
Length of Visible Light 12h 07m
Length of Day
11h 06m
Waning Gibbous, 83% of the Moon is Illuminated
Mar 1
Waning Gibbous
Mar 4
Last Quarter
Mar 11
New
Mar 19
First Quarter
Mar 27
Full

Hourly Weather History & Observations

Time (CST) Temp. Windchill Dew Point Humidity Pressure Visibility Wind Dir Wind Speed Gust Speed Precip Events Conditions
12:16 AM 21.2 °F - 10.4 °F 63% 30.25 in 10.0 mi Calm Calm - N/A   Scattered Clouds
12:36 AM 19.4 °F - 10.4 °F 68% 30.26 in 10.0 mi Calm Calm - N/A   Scattered Clouds
12:56 AM 19.4 °F - 10.4 °F 68% 30.27 in 10.0 mi Calm Calm - N/A   Mostly Cloudy
1:16 AM 17.6 °F - 10.4 °F 73% 30.27 in 10.0 mi Calm Calm - N/A   Mostly Cloudy
1:36 AM 15.8 °F - 10.4 °F 79% 30.27 in 10.0 mi Calm Calm - N/A   Scattered Clouds
1:56 AM 17.6 °F - 10.4 °F 73% 30.28 in 10.0 mi Calm Calm - N/A   Scattered Clouds
2:16 AM 15.8 °F - 10.4 °F 79% 30.28 in 10.0 mi Calm Calm - N/A   Clear
2:36 AM 14.0 °F - 10.4 °F 86% 30.29 in 10.0 mi Calm Calm - N/A   Clear
2:56 AM 14.0 °F - 10.4 °F 86% 30.29 in 10.0 mi Calm Calm - N/A   Clear
3:16 AM 15.8 °F - 8.6 °F 73% 30.29 in 10.0 mi Calm Calm - N/A   Clear
3:36 AM 15.8 °F - 8.6 °F 73% 30.30 in 10.0 mi Calm Calm - N/A   Clear
3:56 AM 15.8 °F - 8.6 °F 73% 30.30 in 10.0 mi Calm Calm - N/A   Clear
4:16 AM 15.8 °F - 8.6 °F 73% 30.31 in 10.0 mi Calm Calm - N/A   Clear
4:36 AM 15.8 °F - 6.8 °F 68% 30.32 in 10.0 mi Calm Calm - N/A   Clear
4:56 AM 15.8 °F - 6.8 °F 68% 30.32 in 10.0 mi Calm Calm - N/A   Clear
5:16 AM 14.0 °F - 6.8 °F 73% 30.32 in 10.0 mi Calm Calm - N/A   Clear
5:36 AM 15.8 °F - 6.8 °F 68% 30.32 in 10.0 mi Calm Calm - N/A   Clear
6:16 AM 14.0 °F 8.2 °F 5.0 °F 67% 30.33 in 10.0 mi NNE 3.5 mph - N/A   Clear
6:36 AM 14.0 °F - 5.0 °F 67% 30.34 in 10.0 mi Calm Calm - N/A   Clear
7:16 AM 12.2 °F - 3.2 °F 67% 30.35 in 10.0 mi Calm Calm - N/A   Clear
7:36 AM 12.2 °F - 3.2 °F 67% 30.36 in 10.0 mi Calm Calm - N/A   Clear
7:56 AM 14.0 °F - 3.2 °F 62% 30.36 in 10.0 mi Calm Calm - N/A   Clear
8:16 AM 15.8 °F - 3.2 °F 58% 30.36 in 10.0 mi Calm Calm - N/A   Clear
8:36 AM 15.8 °F 10.2 °F 3.2 °F 58% 30.37 in 10.0 mi ENE 3.5 mph - N/A   Clear
8:56 AM 17.6 °F 12.3 °F 3.2 °F 53% 30.37 in 10.0 mi NE 3.5 mph - N/A   Clear
9:16 AM 17.6 °F 12.3 °F 5.0 °F 58% 30.37 in 10.0 mi East 3.5 mph - N/A   Clear
9:36 AM 19.4 °F 12.8 °F 6.8 °F 58% 30.37 in 10.0 mi ENE 4.6 mph - N/A   Clear
9:56 AM 19.4 °F 10.4 °F 8.6 °F 63% 30.37 in 10.0 mi East 6.9 mph - N/A   Clear
10:16 AM 21.2 °F 14.9 °F 10.4 °F 63% 30.37 in 10.0 mi ESE 4.6 mph - N/A   Clear
10:36 AM 21.2 °F 16.4 °F 8.6 °F 58% 30.37 in 10.0 mi SE 3.5 mph - N/A   Clear
10:56 AM 21.2 °F 16.4 °F 10.4 °F 63% 30.37 in 10.0 mi SSE 3.5 mph - N/A   Clear
11:16 AM 23.0 °F 17.0 °F 10.4 °F 59% 30.37 in 10.0 mi East 4.6 mph - N/A   Clear
11:36 AM 24.8 °F 19.1 °F 10.4 °F 54% 30.36 in 10.0 mi NNE 4.6 mph - N/A   Clear
11:56 AM 24.8 °F 20.5 °F 10.4 °F 54% 30.37 in 10.0 mi North 3.5 mph - N/A   Clear
12:16 PM 24.8 °F 19.1 °F 8.6 °F 50% 30.36 in 10.0 mi NNW 4.6 mph - N/A   Clear
12:36 PM 26.6 °F 21.2 °F 8.6 °F 47% 30.36 in 10.0 mi NE 4.6 mph - N/A   Clear
12:56 PM 26.6 °F 20.0 °F 8.6 °F 47% 30.36 in 10.0 mi North 5.8 mph - N/A   Clear
1:16 PM 26.6 °F 22.6 °F 8.6 °F 47% 30.35 in 10.0 mi NE 3.5 mph - N/A   Clear
1:36 PM 28.4 °F 23.3 °F 8.6 °F 43% 30.34 in 10.0 mi NNE 4.6 mph - N/A   Clear
1:56 PM 28.4 °F 23.3 °F 8.6 °F 43% 30.33 in 10.0 mi NNE 4.6 mph - N/A   Clear
2:16 PM 28.4 °F 23.3 °F 6.8 °F 40% 30.33 in 10.0 mi North 4.6 mph - N/A   Clear
2:36 PM 28.4 °F - 6.8 °F 40% 30.32 in 10.0 mi Calm Calm - N/A   Clear
3:16 PM 28.4 °F 22.2 °F 6.8 °F 40% 30.33 in 10.0 mi North 5.8 mph - N/A   Clear
3:36 PM 28.4 °F 22.2 °F 5.0 °F 37% 30.33 in 10.0 mi NNW 5.8 mph - N/A   Clear
4:16 PM 28.4 °F 23.3 °F 5.0 °F 37% 30.33 in 10.0 mi NNE 4.6 mph - N/A   Clear
4:36 PM 28.4 °F 23.3 °F 5.0 °F 37% 30.33 in 10.0 mi North 4.6 mph - N/A   Clear
4:56 PM 28.4 °F 23.3 °F 5.0 °F 37% 30.33 in 10.0 mi North 4.6 mph - N/A   Clear
5:16 PM 28.4 °F - 3.2 °F 34% 30.34 in 10.0 mi Calm Calm - N/A   Clear
5:36 PM 26.6 °F 22.6 °F 3.2 °F 37% 30.34 in 10.0 mi ENE 3.5 mph - N/A   Clear
5:56 PM 26.6 °F 22.6 °F 3.2 °F 37% 30.34 in 10.0 mi ENE 3.5 mph - N/A   Clear
6:16 PM 23.0 °F - 5.0 °F 46% 30.35 in 10.0 mi Calm Calm - N/A   Clear
6:36 PM 21.2 °F - 6.8 °F 54% 30.35 in 10.0 mi Calm Calm - N/A   Clear
6:56 PM 17.6 °F - 6.8 °F 63% 30.36 in 10.0 mi Calm Calm - N/A   Clear
7:16 PM 15.8 °F - 6.8 °F 68% 30.35 in 10.0 mi Calm Calm - N/A   Clear
7:36 PM 14.0 °F - 6.8 °F 73% 30.35 in 10.0 mi Calm Calm - N/A   Clear
8:16 PM 10.4 °F - 5.0 °F 79% 30.35 in 10.0 mi Calm Calm - N/A   Clear
8:36 PM 10.4 °F - 6.8 °F 85% 30.35 in 10.0 mi Calm Calm - N/A   Clear
8:56 PM 8.6 °F - 3.2 °F 79% 30.35 in 10.0 mi Calm Calm - N/A   Clear
9:16 PM 6.8 °F - 3.2 °F 85% 30.34 in 10.0 mi Calm Calm - N/A   Clear
9:36 PM 5.0 °F - 1.4 °F 85% 30.34 in 10.0 mi Calm Calm - N/A   Clear
9:56 PM 5.0 °F - 1.4 °F 85% 30.34 in 10.0 mi Calm Calm - N/A   Clear
10:16 PM 3.2 °F - 1.4 °F 92% 30.34 in 10.0 mi Calm Calm - N/A   Clear
10:36 PM 3.2 °F - 1.4 °F 92% 30.34 in 10.0 mi Calm Calm - N/A   Clear
10:56 PM 1.4 °F - -0.4 °F 92% 30.33 in 10.0 mi Calm Calm - N/A   Clear
11:16 PM 1.4 °F - -2.2 °F 85% 30.33 in 10.0 mi Calm Calm - N/A   Clear
11:36 PM 1.4 °F - -0.4 °F 92% 30.33 in 10.0 mi Calm Calm - N/A   Clear
11:56 PM -0.4 °F - -2.2 °F 92% 30.32 in 10.0 mi Calm Calm - N/A   Clear